Location: Middelsbur
(53.6609°N, 7.5020°E)
Time: 23:49:55
(UTC+00:00)

Cosmos 44 - Pass Details

Date: 06 July 2020
Orbit: 586 x 776 km, 65.1° (Epoch: 14 August)

Event Time Altitude Azimuth Distance (km) Brightness Sun altitude
Exits shadow 22:40:54 20° 177° (S) 1,392 4.2 -12.9°
Maximum altitude 22:43:20 37° 122° (ESE) 948 3.7 -13.0°
Drops below altitude 10° 22:47:25 10° 55° (NE) 1,984 6.0 -13.1°
Sets 22:49:52 0° 48° (NE) 2,922 7.0 -13.2°
